Flag for Austria Weather past 2 weeks in St. Johann im Pongau, Salzburg, Austria

41 °F

Light rain. Fog.

Feels Like: 39 °F
Forecast: 42 / 55 °F
Wind: 3 mph from North

Location: Salzburg-Flughafen

Current Time: Oct 14, 2015 at 6:14:59 AM

Latest Report: Oct 14, 2015 at 5:20 AM

Visibility: 3 mi

Pressure: 29.98 "Hg (27.83 "Hg at 606m altitude)

Humidity: 100%

Dew point: 41 °F

Location of St. Johann im PongauLocation

Historic Weather in St. Johann im Pongau — Graph


St. Johann im Pongau temperature yesterday

Maximum temperature yesterday: 50 °F (at 12:50 PM)
Minimum temperature yesterday: 37 °F (at 12:20 AM)
Average temperature yesterday: 44 °F

Past Weeks' High & Low Weather Summary

High73 °F (Oct 3, 3:50 PM)100% (Sep 29, 4:20 AM)30.48 "Hg (Sep 29, 4:20 AM)
Low34 °F (Sep 29, 5:50 AM)43% (Oct 1, 1:50 PM)29.71 "Hg (Oct 6, 5:50 PM)
Average51 °F83%30.07 "Hg
* Reported Sep 29 4:20 AM — Oct 14 4:50 AM, St. Johann im Pongau, Weather by CustomWeather, © 2015

Note: Actual official high and low records may vary slightly from our data, if they occured in-between our weather recording intervals... More about our weather records


St. Johann im Pongau weather history for previous 24 hours

Time TempWeatherWind HumidityBarometerVisibility
4:50 AM
Wed, Oct 14
41 °FLight rain. Fog.6 mph100%29.98 "Hg3 mi
4:20 AM41 °FLight rain. Fog.7 mph100%29.98 "Hg2 mi
3:50 AM41 °FRain. Fog.7 mph100%29.98 "Hg2 mi
3:20 AM41 °FLight rain. Fog.7 mph100%29.95 "Hg2 mi
2:50 AM41 °FLight rain. Fog.8 mph100%29.95 "Hg3 mi
2:20 AM41 °FLight rain. Low clouds.8 mph93%29.95 "Hg4 mi
1:50 AM41 °FSprinkles. Fog.10 mph93%29.95 "Hg3 mi
1:20 AM41 °FPassing clouds.8 mph93%29.92 "Hg4 mi
12:50 AM41 °FPassing clouds.8 mph93%29.89 "Hg4 mi
12:20 AM43 °FPassing clouds.8 mph87%29.89 "Hg5 mi
11:50 PM
Tue, Oct 13
43 °FSprinkles. Passing clouds.7 mph93%29.89 "Hg5 mi
11:20 PM43 °FPassing clouds.6 mph93%29.89 "Hg5 mi
10:50 PM43 °FPassing clouds.7 mph93%29.89 "Hg6 mi
10:20 PM43 °FPassing clouds.7 mph93%29.89 "Hg5 mi
9:50 PM45 °FPassing clouds.6 mph87%29.89 "Hg5 mi
9:20 PM43 °FPassing clouds.6 mph93%29.89 "Hg5 mi
8:50 PM45 °FPassing clouds.6 mph87%29.89 "Hg5 mi
8:20 PM45 °FPassing clouds.5 mph87%29.92 "Hg5 mi
7:50 PM45 °FPassing clouds.5 mph93%29.92 "Hg5 mi
7:20 PM45 °FBroken clouds.7 mph93%29.92 "Hg6 mi
6:50 PM45 °FBroken clouds.7 mph93%29.92 "Hg6 mi
6:20 PM46 °FBroken clouds.7 mph87%29.92 "Hg6 mi
5:50 PM46 °FBroken clouds.7 mph82%29.92 "Hg6 mi
5:20 PM46 °FLight rain. Broken clouds.9 mph82%29.92 "Hg6 mi
4:50 PM48 °FPartly sunny.9 mph82%29.92 "Hg6 mi
4:20 PM48 °FBroken clouds.8 mph82%29.92 "Hg6 mi
3:50 PM50 °FPartly sunny.7 mph76%29.92 "Hg6 mi
3:20 PM50 °FPartly sunny.8 mph82%29.92 "Hg6 mi
2:50 PM50 °FPartly sunny.6 mph82%29.89 "Hg6 mi
2:20 PM50 °FPartly sunny.6 mph82%29.92 "HgN/A
1:50 PM50 °FBroken clouds.3 mph76%29.92 "HgN/A
1:20 PM50 °FPartly sunny.2 mph76%29.92 "HgN/A
12:50 PM50 °FPartly sunny.2 mph76%29.92 "HgN/A
12:20 PM48 °FPartly sunny.1 mph82%29.95 "Hg5 mi
11:50 AM46 °FPartly sunny.3 mph87%29.95 "Hg5 mi
11:20 AM46 °FBroken clouds.2 mph82%29.95 "Hg4 mi
10:50 AM45 °FBroken clouds.1 mph87%29.95 "Hg4 mi
10:20 AM45 °FBroken clouds.1 mph87%29.95 "Hg4 mi
9:50 AM43 °FBroken clouds.2 mph87%29.98 "Hg4 mi
9:20 AM43 °FDrizzle. Fog.5 mph87%29.98 "Hg3 mi
8:50 AM43 °FDrizzle. Fog.6 mph93%29.98 "Hg3 mi
8:20 AM43 °FFog.5 mph93%29.95 "Hg3 mi
7:50 AM41 °FLight rain. Fog.1 mph100%29.95 "Hg3 mi
7:20 AM41 °FFog.3 mph100%29.95 "Hg3 mi
6:50 AM41 °FDrizzle. Fog.1 mph100%29.95 "Hg3 mi
6:20 AM41 °FFog.1 mph100%29.95 "Hg3 mi
Weather by CustomWeather, © 2015

See weather overviewHow to use our weather pages